Weather in Strzelce Opolskie

Poland     50°30′34″N   18°18′11″E
temp.,
°C
wind,
m/s
gust,
m/s
humid.,
%
clouds,
%
prec.,
mm/h
press.,
hPa
HPBL,
m
22 april, thu
thu2223:00+8sw337316 0.3 101336
02:00+7wsw358499 0.3 101399
05:00+5nw369532 0.0 1014146
08:00+5wnw61189100 0.4 1016631
11:00+6nw79585 0.1 10181037
14:00+10wnw684340 0.1 10182003
17:00+8nw785145 0.0 10181419
20:00+4wnw346824 0.0 102083
23 april, fri
fri2323:00+3wsw398277 0.2 1020332
02:00+2w399130 0.3 1021273
05:00+2w4109487 0.0 1021398
08:00+4wnw688498 0.1 1023648
11:00+5wnw6978100 0.4 1023914
14:00+7nw7106685 0.8 10231347
17:00+6nw7116584 0.1 10241423
20:00+4nw367433 0.1 1024112
24 april, sat
sat2423:00+3nw228299 0.0 102533
02:00+3w3467100 0.0 102583
05:00+1wnw226748 0.0 102525
08:00+5sw23575 0.0 1025226
11:00+9w454886 0.0 10241864
14:00+9wnw5652100 0.0 10231579
17:00+10nnw566083 0.0 10221088
20:00+7wnw2374100 0.1 102255
25 april, sun
sun2523:00+5wnw2380100 0.1 102259
02:00+5wnw268099 0.1 1022191
05:00+2nw379311 0.1 1023177
08:00+3nw35775 0.1 1024387
11:00+7nw564794 0.1 10241941
14:00+9nw573699 0.1 10232400
17:00+9nw673788 0.0 10222221
20:00+5wnw23567 0.0 102236
26 april, mon
mon2623:00+3nw226461 0.0 102315
02:00+2nnw0072100 0.0 102210
05:000ssw11795 0.0 102110
08:00+5w23605 0.0 1021274
11:00+10wnw464460 0.0 10201916
14:00+12nw464288 0.0 10182102
17:00+12nw454226 0.0 10171959
20:00+7nne33575 0.0 101748